Lid_Strength_Index
2 2 2 3 3 3 3 3 4 4 4 4 4 4 3 3 4 5 6 5 3 -1 1 6 7 8 10 10 9 9 13 12 12 11 10 6 7 6 4 6 6 4 5 3 3
2 2 3 3 3 3 4 4 4 4 4 4 4 3 3 3 5 7 3 -1 -1 -2 7 8 9 9 12 12 11 12 14 12 9 9 9 7 7 7 7 7 7 6 4 3 3
2 3 3 3 3 4 4 4 4 4 4 4 4 4 3 3 6 5 -2 -1 -2 0 8 8 9 10 12 11 12 12 13 10 8 9 8 9 7 6 8 10 7 7 5 4 3
3 3 3 3 3 3 3 4 4 4 4 4 4 3 3 4 11 5 -2 -2 -1 5 8 10 10 12 13 13 11 13 10 9 8 8 10 10 7 7 7 7 5 5 4 3 4
2 3 3 3 3 3 3 4 4 4 4 4 3 3 4 7 5 2 -2 -2 3 6 8 10 11 11 13 12 12 13 11 9 8 9 11 9 8 8 7 6 5 4 4 4 4
2 3 3 3 3 3 3 4 4 4 4 3 3 3 4 8 3 2 1 1 3 5 7 8 9 9 11 12 13 11 10 10 9 9 10 11 7 8 7 5 5 5 5 4 4
3 3 3 3 3 3 3 4 4 4 3 3 2 3 5 7 3 4 3 3 3 5 7 7 6 8 9 12 10 10 12 11 10 9 9 9 10 8 7 5 6 6 5 4 4
3 3 3 3 3 3 3 3 3 3 3 2 2 3 6 1 2 4 4 5 5 5 6 7 7 8 10 10 10 12 12 15 10 9 8 9 12 9 6 6 7 6 5 5 4
3 3 3 3 2 2 2 3 3 3 2 2 3 5 6 0 4 5 5 5 4 5 5 4 8 9 9 11 14 13 15 12 12 9 9 9 10 7 6 7 7 7 6 5 5
2 2 2 2 2 2 3 3 3 4 2 2 3 5 4 4 3 2 3 4 5 4 6 7 10 12 12 13 15 13 14 13 12 9 9 10 10 6 7 7 8 7 6 5 5
2 2 2 2 2 3 4 6 5 6 5 6 5 5 3 2 2 3 3 4 5 6 9 8 11 13 12 11 10 10 11 12 10 9 11 11 9 7 6 7 7 7 6 6 6
2 2 2 2 2 3 5 6 4 4 8 4 3 3 2 3 5 4 3 6 6 8 7 9 12 9 8 8 9 10 11 12 10 9 11 11 11 7 7 7 7 7 7 6 6
2 3 2 3 3 5 7 4 1 4 8 5 3 5 5 5 5 5 4 6 7 8 8 10 8 6 7 8 9 10 11 11 11 9 10 11 12 11 8 7 6 6 6 6 6
2 2 2 2 4 4 4 2 3 4 10 7 6 5 5 5 6 3 3 5 7 8 8 9 7 7 8 9 9 12 8 8 9 11 15 12 16 13 10 9 8 8 7 7 6
2 2 2 4 5 5 2 3 2 4 17 6 5 2 3 5 5 4 3 5 8 8 8 9 8 8 9 8 7 10 7 9 9 11 13 12 15 14 11 11 9 8 8 7 6
2 2 3 3 4 4 2 2 4 11 17 8 6 6 7 5 5 5 5 4 4 7 7 8 6 7 9 9 7 7 9 9 11 12 16 13 13 13 12 12 10 8 7 7 6
2 2 3 3 3 2 2 4 12 16 7 9 9 6 7 7 6 7 8 8 10 12 11 8 9 9 9 12 10 9 11 17 18 17 17 12 14 15 11 9 9 8 8 6 7
3 4 4 3 2 1 3 8 15 9 9 6 6 7 8 9 9 8 8 9 9 10 11 13 13 10 9 11 13 12 11 16 22 21 18 12 16 15 9 8 8 7 9 6 6
5 3 3 1 2 2 6 13 11 8 7 7 7 9 9 8 9 9 9 9 9 10 13 13 12 8 7 7 9 11 13 9 14 13 16 15 12 10 9 9 8 8 9 9 7
3 3 3 1 2 3 8 10 9 7 6 6 9 8 10 9 9 9 9 8 8 8 8 10 13 8 7 7 7 10 8 13 13 20 20 16 16 16 13 11 9 9 9 8 8
3 5 3 2 1 5 11 9 7 5 5 7 8 9 9 9 9 9 9 8 7 8 7 9 11 11 8 10 11 10 12 11 12 15 19 21 18 12 12 10 10 9 8 7 7
3 8 3 1 7 7 9 7 8 6 5 6 6 7 8 8 9 9 9 8 6 6 9 9 11 14 11 8 7 8 11 11 16 16 15 17 17 9 10 9 9 8 7 6 5
5 5 2 3 9 9 7 6 6 6 6 6 7 6 6 8 11 8 7 6 6 7 9 9 12 16 14 11 8 10 10 10 12 13 16 18 17 8 8 8 7 8 7 6 6
5 8 5 4 5 7 8 6 7 5 5 5 5 6 8 9 8 9 8 6 6 6 4 6 12 14 17 13 10 13 11 10 12 16 16 16 15 11 10 9 8 8 7 6 7
5 7 6 9 7 7 7 7 7 7 5 5 7 7 8 11 10 10 8 8 6 5 7 9 14 12 10 9 9 11 10 10 13 13 16 13 14 11 9 8 8 7 7 6 6
6 6 5 6 5 6 7 8 7 6 6 6 7 7 7 10 9 10 9 9 9 8 9 9 13 12 12 9 10 12 11 10 11 11 12 11 13 8 7 7 7 7 7 7 6
2 2 5 7 7 8 8 6 6 6 5 5 5 7 8 7 6 7 8 7 7 10 10 10 12 14 15 11 11 15 13 12 11 10 11 14 10 8 9 8 8 7 7 6 6